Dewpoint
64 64 65 65 65 65 65 66 66 67 66 66 65 65 62 60 60 59 60 58 59 62 62 62 62 62 63 62 61 60 60 60 60
64 66 66 66 66 66 66 66 67 67 65 65 66 63 61 60 60 60 59 59 59 59 61 62 61 61 61 61 61 61 60 60 59
64 63 64 65 66 66 66 66 67 66 64 65 66 62 60 60 60 60 61 61 59 58 58 58 58 59 60 60 59 59 59 59 58
64 64 65 65 66 66 66 66 66 65 63 62 63 62 61 59 60 61 61 61 60 59 58 58 58 58 57 57 57 58 58 57 57
65 66 65 65 65 65 65 65 64 62 60 61 59 60 60 59 60 60 61 62 60 60 59 58 58 58 58 57 57 57 58 57 56
66 65 66 66 65 65 64 63 62 60 59 59 59 57 56 56 58 60 61 64 62 61 60 59 58 57 57 57 57 57 57 57 56
64 64 65 65 65 64 64 63 62 60 58 58 58 56 56 55 55 60 61 64 63 62 61 60 59 58 57 57 56 55 56 55 55
63 63 64 64 64 63 64 63 62 60 58 58 58 58 57 55 53 57 61 63 64 63 63 63 62 61 59 58 57 56 55 55 55
63 63 63 63 63 62 61 61 61 61 61 60 60 58 56 54 53 53 55 61 64 63 62 63 64 64 63 61 60 59 58 56 55
63 63 62 62 62 62 60 61 61 61 60 60 60 59 57 56 53 53 53 56 62 63 63 62 62 63 62 62 62 62 60 60 58
63 63 62 61 61 61 61 60 60 60 58 56 56 55 54 54 53 53 53 55 57 62 62 62 62 61 60 60 61 61 61 62 61
64 63 62 62 61 61 61 59 57 57 58 58 58 58 58 58 57 57 56 56 56 58 62 62 62 61 61 61 61 62 62 62 62
63 63 61 60 60 59 56 55 56 58 58 58 58 59 59 59 59 58 58 58 58 58 59 61 62 62 61 61 61 61 60 60 60
61 60 58 57 57 56 55 56 57 57 58 59 59 60 60 61 60 60 60 60 60 59 59 59 61 61 61 62 61 59 58 58 58
59 58 57 59 60 59 58 57 59 59 60 60 60 61 60 59 58 58 58 59 59 59 58 59 61 62 61 60 59 57 56 55 55
58 58 58 59 60 60 61 61 60 60 61 60 57 56 56 55 54 54 55 56 57 57 58 58 57 57 57 57 56 55 55 55 55
60 60 60 61 61 62 62 61 60 60 60 56 55 51 52 53 54 53 53 53 53 53 53 52 51 52 52 53 53 53 54 53 54
62 62 62 63 63 62 63 62 61 58 58 58 55 51 49 52 53 52 52 52 51 52 50 48 49 49 50 50 51 52 52 52 53
62 63 63 63 62 61 60 60 59 59 57 56 56 56 55 52 49 52 51 50 50 50 48 47 48 48 48 49 51 52 52 52 52
57 58 58 58 57 57 57 56 56 55 55 54 54 54 53 55 53 49 49 49 47 47 47 46 46 47 47 48 51 51 51 53 51
Wind_Speed
17 16 15 15 14 14 14 13 13 12 13 11 12 11 11 10 10 11 10 9 11 10 10 11 12 13 12 11 11 11 11 12 12
16 14 14 14 14 14 13 13 12 12 11 10 11 10 10 9 9 9 8 8 10 10 10 9 9 10 10 10 9 9 9 10 11
15 14 13 12 12 12 12 11 11 11 11 12 11 8 9 7 8 6 6 7 8 9 9 9 8 8 8 8 8 8 8 9 9
13 13 12 11 10 10 9 10 9 10 10 9 8 5 6 6 4 4 3 4 6 7 7 8 7 8 8 8 7 7 8 8 9
11 10 9 9 8 7 8 7 7 7 8 8 6 6 4 2 1 1 0 1 3 5 5 6 6 6 7 7 6 7 7 8 8
9 8 8 7 6 6 5 5 5 4 4 5 5 4 1 1 1 3 3 2 0 2 3 3 3 4 4 4 4 5 6 6 6
8 7 8 6 5 4 4 3 3 3 2 2 3 2 0 1 2 3 5 5 3 1 1 1 1 0 0 0 1 3 3 4 4
6 5 4 4 4 2 1 0 0 1 0 2 2 2 2 2 3 4 6 7 7 5 5 5 5 4 4 3 2 1 2 2 2
7 6 5 5 4 4 3 2 2 2 2 3 4 4 3 3 4 5 6 9 9 8 7 7 9 9 7 5 5 5 3 3 3
8 7 6 6 5 5 5 4 4 4 4 5 6 7 6 6 6 6 7 8 10 11 11 10 11 11 8 6 5 9 9 8 6
10 9 8 8 7 7 6 5 5 5 4 5 5 6 6 6 6 6 7 8 10 13 14 12 13 8 5 5 4 1 7 11 10
12 11 11 10 8 7 5 4 3 3 3 6 6 6 7 7 8 7 7 8 10 10 12 14 14 6 3 3 5 7 12 13 6
12 12 13 11 9 8 7 5 5 6 6 6 7 7 8 8 6 6 5 5 7 8 11 12 12 0 2 4 10 9 10 11 11
15 14 14 10 9 9 8 7 7 7 7 8 10 7 6 5 5 7 7 8 8 7 7 7 4 8 8 11 11 9 9 9 9
17 14 13 12 10 10 9 10 8 7 8 8 8 3 5 6 7 8 9 8 8 5 1 4 7 14 13 11 9 8 7 6 6
17 15 15 13 14 14 11 6 8 7 5 5 5 5 7 8 4 5 5 6 6 7 9 10 9 10 15 11 8 7 7 6 6
16 17 16 15 13 12 11 9 3 3 1 4 3 6 7 4 5 5 6 10 11 11 11 11 10 9 11 11 11 10 10 10 10
16 13 11 8 5 6 4 6 7 6 1 2 3 4 4 3 2 6 7 5 11 10 10 10 9 9 9 9 9 11 11 10 10
1 8 12 15 11 8 4 3 4 4 6 2 3 5 2 5 5 2 6 7 8 7 7 7 7 8 8 7 10 13 14 12 11
11 9 7 5 2 7 1 1 2 3 1 3 1 1 2 5 8 8 3 4 5 5 5 6 6 5 6 7 8 11 12 13 9
Wind_Direction
129 127 127 126 125 126 122 115 110 102 96 101 112 103 93 88 81 75 69 70 72 72 63 43 48 51 59 56 48 42 33 33 31
130 129 122 126 130 128 125 120 114 102 91 95 119 107 94 89 82 79 74 72 75 74 72 61 52 47 41 34 31 31 36 36 35
133 134 133 133 130 128 127 124 118 105 85 84 122 111 101 91 83 79 77 82 76 73 73 68 63 59 54 43 36 37 37 41 43
139 140 136 135 130 124 123 123 117 103 89 81 93 108 102 97 96 87 66 77 79 79 74 69 63 61 57 48 42 42 44 46 45
143 140 134 131 126 121 116 112 108 100 99 98 89 101 98 99 116 106 170 50 64 79 77 71 64 59 55 46 40 43 43 44 42
149 149 143 141 137 128 116 104 91 79 68 85 104 124 76 352 288 243 245 254 358 78 77 74 68 63 60 48 38 42 46 46 46
163 164 159 160 154 148 136 118 97 71 44 18 47 96 38 333 329 242 243 247 260 239 218 215 225 146 50 341 24 36 34 32 40
166 167 173 168 170 164 151 124 175 174 246 342 342 307 301 315 299 275 247 248 257 261 241 245 251 249 246 254 278 308 342 348 4
187 189 195 196 198 198 217 219 239 254 265 276 290 295 293 294 288 280 270 255 253 264 268 260 254 251 250 250 263 266 275 281 277
195 206 208 215 211 213 210 227 244 262 278 283 276 286 289 279 272 277 279 271 254 258 265 266 265 266 287 283 264 248 243 240 244
202 212 219 226 215 217 217 222 243 256 269 283 278 277 280 278 273 272 277 272 263 254 258 268 277 292 318 307 7 27 267 258 248
211 214 220 228 224 226 232 245 249 254 269 264 266 261 259 260 262 261 256 268 269 268 260 260 268 303 312 6 71 61 40 33 335
216 220 227 228 225 218 214 207 225 238 237 260 261 255 259 265 260 266 259 262 276 274 273 268 267 266 66 48 90 61 49 41 31
211 214 225 213 204 206 206 210 209 227 238 243 262 263 265 281 292 290 296 291 280 274 279 276 224 147 130 95 90 77 56 41 27
203 210 213 199 196 209 212 219 223 235 253 278 287 289 290 287 306 307 297 285 290 292 251 100 116 110 104 107 110 99 82 53 25
195 202 200 196 202 210 207 215 226 255 241 282 303 294 298 306 1 5 344 15 44 77 101 100 89 77 80 67 53 47 42 24 6
190 197 203 195 200 212 204 198 231 227 188 272 316 313 326 357 43 44 61 86 85 79 78 83 81 68 71 69 56 42 16 2 350
197 187 185 181 187 215 197 187 199 249 8 129 242 296 252 333 335 53 55 83 99 98 97 93 85 82 73 59 42 27 10 359 350
99 183 183 183 164 165 201 178 173 180 249 302 249 247 228 271 294 49 57 53 72 88 87 84 83 90 78 50 40 24 5 351 338
59 62 57 51 128 113 187 104 141 124 195 206 222 245 274 254 244 273 235 70 67 75 95 101 82 60 78 58 29 28 8 0 343